Tracking 29892 objects as of 21-Nov-2024
HD Live streaming from Space Station
objects crossing your sky now

STARLINK-1890

Track STARLINK-1890 now!
10-day predictions
STARLINK-1890 is classified as:


NORAD ID: 47173
Int'l Code: 2020-088BD
Perigee: 519.1 km
Apogee: 520.7 km
Inclination: 53.1 °
Period: 94.9 minutes
Semi major axis: 6890 km
RCS: Unknown
Launch date: November 25, 2020
Source: United States (US)
Launch site: AIR FORCE EASTERN TEST RANGE (AFETR)
Your satellite tracking list
Your tracking list is empty




NASA's NSSDC Master Catalog

Two Line Element Set (TLE):
1 47173U 20088BD  24326.25001157  .00664010  00000-0  30438-1 0  9994
2 47173  53.0525 266.5973 0001151  91.1753  51.4572 15.17720799220776
Source of the keplerian elements: AFSPC